Olivia, MN

1:16 AM CDT on September 26, 2017 (GMT -0500)
Olivia Regional

Weather History for KOVL - October, 2013

Change the Weather History Date:

Thursday, October 3, 2013

  Actual Average (KRWF) Record (KRWF)
Temperature  
Mean Temperature 55 °F -  
Max Temperature 57 °F 65 °F 92 °F (1938)
Min Temperature 53 °F 43 °F 22 °F (1989)
Degree Days  
Heating Degree Days 10    
Growing Degree Days 5 (Base 50)    
Moisture  
Dew Point 53 °F    
Average Humidity 92    
Maximum Humidity 94    
Minimum Humidity 88    
Precipitation  
Precipitation 0.00 in - - ()
Sea Level Pressure  
Sea Level Pressure 29.87 in    
Wind  
Wind Speed 8 mph (NE)    
Max Wind Speed 13 mph    
Max Gust Speed 16 mph    
Visibility 6 miles    
Events Rain    
Averages and records for this station are not official NWS values.
T = Trace of Precipitation, MM = Missing Value Source: NWS Daily Summary

Daily Weather History Graph

Daily Weather History Graph

Search for Another Location

Airport or City:

Trip Planner

Search our weather history database for the weather conditions in past years. The results will help you decide how hot, cold, wet, or windy it might be!

Date:

Astronomy

Oct. 03, 2013 Rise Set
Actual Time 7:20 AM CDT 6:56 PM CDT
Civil Twilight 6:51 AM CDT 7:25 PM CDT
Nautical Twilight 6:17 AM CDT 7:59 PM CDT
Astronomical Twilight 5:43 AM CDT 8:33 PM CDT
Moon 5:53 AM CDT (10/3) 6:06 PM CDT (10/3)
Length of Visible Light 12h 33m
Length of Day
11h 35m
Waning Crescent, 2% of the Moon is Illuminated
Oct 3
Waning Crescent
Oct 4
New
Oct 11
First Quarter
Oct 18
Full
Oct 26
Last Quarter

Hourly Weather History & Observations

Time (CDT) Temp. Dew Point Humidity Pressure Visibility Wind Dir Wind Speed Gust Speed Precip Events Conditions
12:13 AM 53.6 °F 51.8 °F 94% 29.84 in 10.0 mi NNE 5.8 mph - N/A   Overcast
12:34 AM 53.6 °F 51.8 °F 94% 29.84 in 10.0 mi NNE 8.1 mph - N/A   Overcast
12:53 AM 53.6 °F 51.8 °F 94% 29.84 in 10.0 mi North 10.4 mph - N/A   Overcast
1:13 AM 53.6 °F 51.8 °F 94% 29.85 in 10.0 mi NE 8.1 mph - N/A   Overcast
1:34 AM 53.6 °F 51.8 °F 94% 29.85 in 10.0 mi NE 8.1 mph - N/A   Overcast
1:54 AM 53.6 °F 51.8 °F 94% 29.86 in 10.0 mi NNE 8.1 mph - N/A   Overcast
2:13 AM 53.6 °F 51.8 °F 94% 29.86 in 10.0 mi NNE 6.9 mph - N/A   Overcast
2:33 AM 53.6 °F 51.8 °F 94% 29.85 in 4.0 mi NE 8.1 mph - N/A   Overcast
2:54 AM 53.6 °F 51.8 °F 94% 29.85 in 2.5 mi NNE 8.1 mph - N/A   Overcast
3:13 AM 53.6 °F 51.8 °F 94% 29.86 in 2.0 mi NE 8.1 mph - N/A   Overcast
3:33 AM 53.6 °F 51.8 °F 94% 29.86 in 1.8 mi NE 8.1 mph - N/A   Overcast
3:54 AM 53.6 °F 51.8 °F 94% 29.86 in 1.2 mi NE 8.1 mph - N/A   Overcast
4:13 AM 53.6 °F 51.8 °F 94% 29.86 in 1.2 mi NE 4.6 mph - N/A   Overcast
4:33 AM 53.6 °F 51.8 °F 94% 29.86 in 1.0 mi NE 5.8 mph - N/A   Overcast
4:53 AM 53.6 °F 51.8 °F 94% 29.86 in 1.2 mi NE 6.9 mph - N/A   Overcast
5:13 AM 53.6 °F 51.8 °F 94% 29.85 in 1.2 mi NE 9.2 mph - N/A   Overcast
5:33 AM 53.6 °F 51.8 °F 94% 29.85 in 1.8 mi NE 4.6 mph - N/A   Overcast
5:54 AM 53.6 °F 51.8 °F 94% 29.84 in 1.8 mi NNE 9.2 mph - N/A   Overcast
6:13 AM 53.6 °F 51.8 °F 94% 29.85 in 1.2 mi NNE 6.9 mph - N/A   Overcast
6:33 AM 53.6 °F 51.8 °F 94% 29.86 in 1.2 mi ENE 5.8 mph - N/A   Overcast
6:53 AM 53.6 °F 51.8 °F 94% 29.86 in 1.5 mi ENE 8.1 mph - N/A   Overcast
7:14 AM 53.6 °F 51.8 °F 94% 29.86 in 1.8 mi ENE 6.9 mph - N/A   Overcast
7:33 AM 53.6 °F 51.8 °F 94% 29.86 in 2.0 mi NE 6.9 mph - N/A   Overcast
7:53 AM 53.6 °F 51.8 °F 94% 29.86 in 3.0 mi North 6.9 mph - N/A   Overcast
8:13 AM 53.6 °F 51.8 °F 94% 29.84 in 3.0 mi NE 10.4 mph 16.1 mph N/A   Overcast
8:33 AM 53.6 °F 51.8 °F 94% 29.86 in 4.0 mi NE 8.1 mph - N/A   Overcast
8:53 AM 53.6 °F 51.8 °F 94% 29.85 in 4.0 mi ENE 9.2 mph - N/A   Overcast
9:13 AM 53.6 °F 51.8 °F 94% 29.85 in 3.0 mi NE 8.1 mph - N/A   Overcast
9:33 AM 53.6 °F 51.8 °F 94% 29.85 in 2.5 mi NE 6.9 mph - N/A   Overcast
9:54 AM 53.6 °F 51.8 °F 94% 29.85 in 2.5 mi NNE 9.2 mph - N/A   Overcast
10:13 AM 53.6 °F 51.8 °F 94% 29.85 in 2.5 mi NE 9.2 mph - N/A   Overcast
10:33 AM 53.6 °F 51.8 °F 94% 29.86 in 4.0 mi ENE 8.1 mph - N/A   Overcast
10:54 AM 55.4 °F 53.6 °F 94% 29.86 in 4.0 mi ENE 6.9 mph - N/A   Overcast
11:13 AM 55.4 °F 53.6 °F 94% 29.85 in 3.0 mi NE 6.9 mph - N/A   Overcast
11:33 AM 55.4 °F 53.6 °F 94% 29.85 in 3.0 mi NE 8.1 mph - N/A   Overcast
11:53 AM 57.2 °F 53.6 °F 88% 29.85 in 7.0 mi NNE 6.9 mph - N/A   Overcast
12:13 PM 57.2 °F 53.6 °F 88% 29.86 in 10.0 mi NNE 10.4 mph - N/A   Overcast
12:33 PM 57.2 °F 53.6 °F 88% 29.87 in 10.0 mi North 10.4 mph - N/A   Overcast
12:53 PM 55.4 °F 53.6 °F 94% 29.87 in 10.0 mi NNE 8.1 mph - N/A   Overcast
1:13 PM 55.4 °F 53.6 °F 94% 29.86 in 7.0 mi NNE 9.2 mph - N/A   Overcast
1:33 PM 57.2 °F 53.6 °F 88% 29.86 in 10.0 mi NNE 11.5 mph - N/A   Overcast
1:54 PM 57.2 °F 53.6 °F 88% 29.84 in 10.0 mi NE 12.7 mph 16.1 mph N/A   Overcast
2:13 PM 57.2 °F 53.6 °F 88% 29.84 in 10.0 mi NNE 12.7 mph - N/A   Overcast
2:33 PM 57.2 °F 53.6 °F 88% 29.85 in 10.0 mi NNE 8.1 mph - N/A   Overcast
2:53 PM 57.2 °F 53.6 °F 88% 29.86 in 10.0 mi NE 12.7 mph - N/A   Overcast
3:13 PM 57.2 °F 53.6 °F 88% 29.87 in 10.0 mi NE 5.8 mph - N/A   Overcast
3:33 PM 57.2 °F 53.6 °F 88% 29.86 in 10.0 mi NE 5.8 mph - N/A   Overcast
3:53 PM 57.2 °F 53.6 °F 88% 29.86 in 10.0 mi NE 8.1 mph - N/A   Overcast
4:14 PM 57.2 °F 53.6 °F 88% 29.86 in 10.0 mi NNE 8.1 mph - N/A   Overcast
4:34 PM 57.2 °F 53.6 °F 88% 29.87 in 10.0 mi NNE 5.8 mph - N/A   Overcast
4:53 PM 57.2 °F 53.6 °F 88% 29.87 in 10.0 mi NE 4.6 mph - N/A   Overcast
5:13 PM 57.2 °F 53.6 °F 88% 29.87 in 10.0 mi NNE 6.9 mph - N/A   Overcast
5:33 PM 57.2 °F 53.6 °F 88% 29.87 in 10.0 mi NE 6.9 mph - N/A   Overcast
5:53 PM 57.2 °F 53.6 °F 88% 29.86 in 10.0 mi NE 8.1 mph - N/A   Overcast
6:14 PM 57.2 °F 53.6 °F 88% 29.86 in 10.0 mi NE 6.9 mph - N/A Rain Light Rain
6:33 PM 57.2 °F 53.6 °F 88% 29.86 in 10.0 mi ENE 5.8 mph - N/A   Overcast
6:54 PM 57.2 °F 53.6 °F 88% 29.86 in 10.0 mi NE 8.1 mph - N/A   Overcast
7:13 PM 57.2 °F 53.6 °F 88% 29.86 in 10.0 mi NE 9.2 mph - N/A   Overcast
7:33 PM 57.2 °F 53.6 °F 88% 29.87 in 10.0 mi NE 5.8 mph - N/A   Overcast
7:54 PM 57.2 °F 53.6 °F 88% 29.89 in 10.0 mi North 4.6 mph - N/A   Overcast
8:13 PM 57.2 °F 53.6 °F 88% 29.90 in 10.0 mi North 8.1 mph - N/A   Overcast
8:33 PM 57.2 °F 53.6 °F 88% 29.90 in 10.0 mi NNE 9.2 mph - N/A   Overcast
8:54 PM 55.4 °F 53.6 °F 94% 29.91 in 10.0 mi NNE 6.9 mph - N/A   Overcast
9:13 PM 57.2 °F 53.6 °F 88% 29.92 in 10.0 mi NNE 6.9 mph - N/A   Overcast
9:33 PM 57.2 °F 53.6 °F 88% 29.93 in 10.0 mi NNE 8.1 mph - N/A   Overcast
9:54 PM 57.2 °F 53.6 °F 88% 29.95 in 10.0 mi NNE 6.9 mph - N/A   Overcast
10:13 PM 55.4 °F 51.8 °F 88% 29.95 in 7.0 mi NNE 8.1 mph - N/A   Overcast
10:33 PM 53.6 °F 51.8 °F 94% 29.95 in 2.5 mi NNE 8.1 mph - N/A   Overcast
11:33 PM 53.6 °F 51.8 °F 94% 29.95 in 4.0 mi NNE 9.2 mph - N/A   Overcast
11:54 PM 53.6 °F 51.8 °F 94% 29.95 in 5.0 mi NNE 9.2 mph - N/A   Overcast